HF3P-11 Weather Reports


Display with metric or nautical units.
time (UTC)temp
F
wind
direction
speed
MPH
gust
MPH
rain 1hr
in
rain 24hr
in
rain mn
in
humidity
%
barometer
mb
20260502213953 57 176 2.0 5.0 0.00 0.00 0.00 51 1010.6
20260502213501 57 173 3.0 5.0 0.00 0.00 0.00 51 1010.7
20260502212953 57 173 2.0 5.0 0.00 0.00 0.00 51 1010.7
20260502212502 57 178 2.0 4.0 0.00 0.00 0.00 51 1010.8
20260502211953 58 177 2.0 4.0 0.00 0.00 0.00 51 1010.9
20260502211502 58 183 2.0 4.0 0.00 0.00 0.00 50 1010.9
20260502210954 58 183 2.0 4.0 0.00 0.00 0.00 50 1010.7
20260502210501 58 181 2.0 4.0 0.00 0.00 0.00 49 1010.7
20260502205953 58 181 2.0 4.0 0.00 0.00 0.00 49 1010.6
20260502205502 59 176 2.0 4.0 0.00 0.00 0.00 48 1010.8
20260502204954 59 176 2.0 4.0 0.00 0.00 0.00 48 1010.7
20260502204502 59 176 2.0 5.0 0.00 0.00 0.00 48 1010.9
20260502203953 59 175 2.0 5.0 0.00 0.00 0.00 48 1010.9
20260502203501 59 172 3.0 4.0 0.00 0.00 0.00 48 1010.9
20260502202953 59 174 3.0 4.0 0.00 0.00 0.00 48 1010.9
20260502202501 59 169 3.0 4.0 0.00 0.00 0.00 48 1010.9
20260502201956 60 169 2.0 4.0 0.00 0.00 0.00 48 1010.9
20260502201501 60 174 2.0 4.0 0.00 0.00 0.00 48 1010.8
20260502200953 60 161 2.0 4.0 0.00 0.00 0.00 47 1010.8
20260502200501 61 160 2.0 4.0 0.00 0.00 0.00 46 1010.9
20260502195954 61 168 2.0 4.0 0.00 0.00 0.00 46 1010.9
20260502195503 61 174 2.0 4.0 0.00 0.00 0.00 46 1010.9
20260502194954 61 174 2.0 4.0 0.00 0.00 0.00 45 1011.1
20260502194502 62 171 2.0 4.0 0.00 0.00 0.00 45 1011.1
20260502193954 62 175 2.0 4.0 0.00 0.00 0.00 44 1010.8
20260502193502 62 177 2.0 4.0 0.00 0.00 0.00 44 1011.0
20260502192953 62 175 2.0 4.0 0.00 0.00 0.00 44 1011.0
20260502192501 62 173 2.0 4.0 0.00 0.00 0.00 44 1011.1
20260502191953 63 161 3.0 4.0 0.00 0.00 0.00 44 1011.1
20260502191502 63 158 2.0 4.0 0.00 0.00 0.00 44 1011.1
20260502190954 63 170 2.0 4.0 0.00 0.00 0.00 43 1011.2
20260502190455 64 174 2.0 4.0 0.00 0.00 0.00 43 1011.3
20260502190002 64 174 2.0 4.0 0.00 0.00 0.00 43 1011.3
20260502185453 64 171 2.0 4.0 0.00 0.00 0.00 42 1011.2
20260502185002 65 168 2.0 4.0 0.00 0.00 0.00 42 1011.2
20260502184453 65 173 2.0 4.0 0.00 0.00 0.00 41 1011.2
20260502184002 65 164 2.0 4.0 0.00 0.00 0.00 41 1011.3
20260502183454 66 157 2.0 4.0 0.00 0.00 0.00 41 1011.1
20260502183002 66 166 2.0 4.0 0.00 0.00 0.00 41 1011.1
20260502182454 67 167 1.0 4.0 0.00 0.00 0.00 41 1011.1
20260502182002 67 170 1.0 4.0 0.00 0.00 0.00 40 1011.2
20260502181502 68 172 2.0 4.0 0.00 0.00 0.00 39 1011.1
20260502180954 68 175 2.0 4.0 0.00 0.00 0.00 39 1011.1
20260502180502 69 182 2.0 4.0 0.00 0.00 0.00 37 1011.0
20260502170501 73 206 5.0 11.0 0.00 0.00 0.00 33 1011.2
20260502163953 74 190 5.0 11.0 0.00 0.00 0.00 33 1011.4
20260502163501 74 203 6.0 11.0 0.00 0.00 0.00 33 1011.6
20260502162954 75 200 5.0 11.0 0.00 0.00 0.00 32 1011.6
20260502162502 75 185 5.0 9.0 0.00 0.00 0.00 32 1011.7
20260502161954 75 195 5.0 11.0 0.00 0.00 0.00 32 1011.7
20260502161501 75 199 6.0 11.0 0.00 0.00 0.00 33 1011.6
20260502160953 75 187 7.0 10.0 0.00 0.00 0.00 32 1011.8
20260502160502 76 178 7.0 11.0 0.00 0.00 0.00 33 1012.0
20260502151954 77 196 5.0 14.0 0.00 0.00 0.00 32 1012.5
20260502151502 77 213 5.0 11.0 0.00 0.00 0.00 33 1012.6
20260502150954 78 223 4.0 10.0 0.00 0.00 0.00 33 1012.6
20260502150502 78 212 4.0 10.0 0.00 0.00 0.00 32 1012.7
20260502130503 78 195 7.0 17.0 0.00 0.00 0.00 32 1014.1
20260502123503 77 222 6.0 15.0 0.00 0.00 0.00 32 1014.3
20260502122954 77 227 6.0 13.0 0.00 0.00 0.00 31 1014.6
20260502122502 76 224 5.0 13.0 0.00 0.00 0.00 31 1014.5
20260502121954 77 204 6.0 14.0 0.00 0.00 0.00 31 1014.5
20260502121503 77 192 6.0 14.0 0.00 0.00 0.00 31 1014.6
20260502120954 77 190 4.0 10.0 0.00 0.00 0.00 30 1014.7
20260502120502 77 197 3.0 7.0 0.00 0.00 0.00 31 1014.8
20260502115502 77 190 7.0 13.0 0.00 0.00 0.00 31 1015.1
20260502114954 76 205 7.0 12.0 0.00 0.00 0.00 30 1015.1
20260502114502 76 213 6.0 12.0 0.00 0.00 0.00 29 1015.0
20260502113954 76 218 5.0 11.0 0.00 0.00 0.00 29 1015.2
20260502113502 76 224 5.0 12.0 0.00 0.00 0.00 30 1015.3
20260502112955 76 199 5.0 14.0 0.00 0.00 0.00 30 1015.4
20260502112503 76 196 5.0 14.0 0.00 0.00 0.00 31 1015.3
20260502111954 76 221 5.0 11.0 0.00 0.00 0.00 30 1015.3
20260502111502 76 225 5.0 12.0 0.00 0.00 0.00 31 1015.3
20260502110954 76 200 4.0 12.0 0.00 0.00 0.00 31 1015.2
20260502105954 75 220 5.0 12.0 0.00 0.00 0.00 33 1015.3
20260502105503 75 234 5.0 11.0 0.00 0.00 0.00 34 1015.6
20260502104954 75 222 5.0 11.0 0.00 0.00 0.00 34 1015.4
20260502104502 75 222 5.0 14.0 0.00 0.00 0.00 34 1015.5
20260502103954 75 223 5.0 14.0 0.00 0.00 0.00 35 1015.7
20260502103502 74 199 3.0 11.0 0.00 0.00 0.00 36 1015.8
20260502102954 74 177 4.0 11.0 0.00 0.00 0.00 36 1015.8
20260502102502 74 198 5.0 11.0 0.00 0.00 0.00 36 1015.9
20260502101955 74 228 5.0 11.0 0.00 0.00 0.00 35 1015.9
20260502101502 74 226 4.0 11.0 0.00 0.00 0.00 35 1016.0
20260502100955 74 190 3.0 8.0 0.00 0.00 0.00 36 1016.1
20260502100503 73 192 4.0 11.0 0.00 0.00 0.00 36 1016.2
20260502091502 72 217 3.0 7.0 0.00 0.00 0.00 40 1016.4
20260502090954 72 228 4.0 6.0 0.00 0.00 0.00 40 1016.7
20260502090502 71 218 4.0 7.0 0.00 0.00 0.00 42 1016.6
20260502071455 65 226 4.0 7.0 0.00 0.00 0.00 51 1017.0
20260502071003 65 259 4.0 7.0 0.00 0.00 0.00 50 1017.1
20260502070455 65 245 4.0 7.0 0.00 0.00 0.00 49 1017.0
20260502070003 65 210 3.0 7.0 0.00 0.00 0.00 49 1017.1
20260502065455 66 227 3.0 6.0 0.00 0.00 0.00 49 1017.1
20260502065003 67 207 3.0 6.0 0.00 0.00 0.00 48 1017.2
20260502064454 68 193 3.0 6.0 0.00 0.00 0.00 50 1017.2
20260502064002 67 202 3.0 5.0 0.00 0.00 0.00 52 1017.2
20260502063455 66 193 3.0 6.0 0.00 0.00 0.00 52 1017.2
20260502063002 66 190 3.0 6.0 0.00 0.00 0.00 51 1017.2
20260502062455 66 197 2.0 5.0 0.00 0.00 0.00 51 1017.3
20260502062002 65 211 2.0 5.0 0.00 0.00 0.00 50 1017.2
20260502061454 65 215 2.0 5.0 0.00 0.00 0.00 49 1017.2
20260502061002 65 217 2.0 4.0 0.00 0.00 0.00 49 1017.4
20260502060454 66 223 2.0 5.0 0.00 0.00 0.00 49 1017.2
20260502055954 66 219 2.0 5.0 0.00 0.00 0.00 49 1017.1
20260502055502 66 210 2.0 5.0 0.00 0.00 0.00 50 1017.1
20260502054955 66 194 2.0 6.0 0.00 0.00 0.00 50 1017.2
20260502054503 66 192 2.0 6.0 0.00 0.00 0.00 50 1017.3
20260502053955 65 207 2.0 4.0 0.00 0.00 0.00 51 1017.1
20260502053503 65 202 2.0 4.0 0.00 0.00 0.00 51 1017.2
20260502052955 66 183 1.0 4.0 0.00 0.00 0.00 51 1017.2
20260502052502 67 173 1.0 3.0 0.00 0.00 0.00 52 1017.3
20260502051954 67 175 0.0 2.0 0.00 0.00 0.00 54 1017.2
20260502051502 65 198 1.0 2.0 0.00 0.00 0.00 57 1017.1
20260502050955 63 218 1.0 2.0 0.00 0.00 0.00 60 1017.1
20260502050503 60 225 1.0 2.0 0.00 0.00 0.00 63 1017.2
20260502045955 60 225 1.0 2.0 0.00 0.00 0.00 64 1017.3
20260502045504 60 225 0.0 2.0 0.00 0.00 0.00 68 1017.3
20260502044955 58 247 0.0 2.0 0.00 0.00 0.00 70 1017.1
20260502044502 57 264 0.0 2.0 0.00 0.00 0.00 73 1017.3
20260502043954 55 19 0.0 2.0 0.00 0.00 0.00 76 1017.3
20260502043455 52 45 0.0 1.0 0.00 0.00 0.00 79 1017.1
20260502043004 50 45 0.0 1.0 0.00 0.00 0.00 79 1017.0
20260502042503 49 0 0.0 0.0 0.00 0.00 0.00 79 1017.1
20260502042003 48 0 0.0 0.0 0.00 0.00 0.00 80 1017.0
20260502041455 47 0 0.0 0.0 0.00 0.00 0.00 82 1017.1
20260502041002 46 0 0.0 0.0 0.00 0.00 0.00 83 1017.2
20260502040455 43 0 0.0 0.0 0.00 0.00 0.00 82 1017.1
20260502040003 43 0 0.0 0.0 0.00 0.00 0.00 82 1017.0
20260502035503 43 135 0.0 2.0 0.00 0.00 0.00 82 1017.1
20260502034955 43 125 1.0 2.0 0.00 0.00 0.00 82 1017.0
20260502034502 43 123 1.0 2.0 0.00 0.00 0.00 81 1017.3
20260502033954 43 131 1.0 2.0 0.00 0.00 0.00 81 1017.2
20260502033503 43 135 0.0 2.0 0.00 0.00 0.00 81 1017.3
20260502032955 43 0 0.0 0.0 0.00 0.00 0.00 81 1017.4
20260502032455 43 0 0.0 0.0 0.00 0.00 0.00 81 1017.2
20260502032003 43 0 0.0 0.0 0.00 0.00 0.00 80 1017.3
20260502031455 43 90 0.0 2.0 0.00 0.00 0.00 80 1017.3
20260502031002 43 90 1.0 2.0 0.00 0.00 0.00 80 1017.2
20260502030456 43 90 1.0 2.0 0.00 0.00 0.00 80 1017.4
20260502030003 43 90 0.0 2.0 0.00 0.00 0.00 80 1017.4
20260502025455 43 90 0.0 2.0 0.00 0.00 0.00 80 1017.1
20260502025002 43 0 0.0 0.0 0.00 0.00 0.00 80 1017.3
20260502024455 43 0 0.0 0.0 0.00 0.00 0.00 80 1017.3
20260502024003 43 0 0.0 0.0 0.00 0.00 0.00 79 1017.3
20260502023455 43 0 0.0 0.0 0.00 0.00 0.00 79 1017.4
20260502023002 43 0 0.0 0.0 0.00 0.00 0.00 79 1017.5
20260502022503 44 0 0.0 0.0 0.00 0.00 0.00 79 1017.5
20260502022002 43 0 0.0 0.0 0.00 0.00 0.00 79 1017.4
20260502021503 44 1 0.0 2.0 0.00 0.00 0.00 79 1017.5
20260502021002 44 1 0.0 2.0 0.00 0.00 0.00 79 1017.4
20260502020503 44 1 1.0 2.0 0.00 0.00 0.00 78 1017.4
20260502015955 44 4 1.0 2.0 0.00 0.00 0.00 78 1017.4
20260502015502 44 9 0.0 2.0 0.00 0.00 0.00 78 1017.6
20260502014955 44 0 0.0 0.0 0.00 0.00 0.00 77 1017.4
20260502014503 44 0 0.0 0.0 0.00 0.00 0.00 77 1017.5
20260502013955 44 0 0.0 0.0 0.00 0.00 0.00 77 1017.4
20260502013503 44 0 0.0 0.0 0.00 0.00 0.00 76 1017.5
20260502012955 44 0 0.0 0.0 0.00 0.00 0.00 76 1017.3
20260502012503 44 0 0.0 0.0 0.00 0.00 0.00 76 1017.5
20260502011954 45 0 0.0 0.0 0.00 0.00 0.00 76 1017.4
20260502011502 45 0 0.0 0.0 0.00 0.00 0.00 76 1017.4
20260502010955 45 0 0.0 0.0 0.00 0.00 0.00 75 1017.5
20260502010503 45 0 0.0 0.0 0.00 0.00 0.00 74 1017.7
20260502010003 45 0 0.0 0.0 0.00 0.00 0.00 74 1017.6
20260502005455 45 45 0.0 1.0 0.00 0.00 0.00 74 1017.6
20260502005003 46 45 0.0 1.0 0.00 0.00 0.00 73 1017.5
20260502004456 46 0 0.0 0.0 0.00 0.00 0.00 73 1017.6
20260502004003 46 0 0.0 0.0 0.00 0.00 0.00 73 1017.7
20260502003455 46 0 0.0 0.0 0.00 0.00 0.00 72 1017.6
20260502003002 46 45 0.0 1.0 0.00 0.00 0.00 72 1017.7
20260502002503 46 45 0.0 1.0 0.00 0.00 0.00 72 1017.8
20260502002004 46 45 0.0 1.0 0.00 0.00 0.00 71 1017.7
20260502001455 46 45 0.0 1.0 0.00 0.00 0.00 71 1017.7
20260502001003 46 45 0.0 1.0 0.00 0.00 0.00 71 1017.9
20260502000455 47 0 0.0 0.0 0.00 0.00 0.00 70 1017.9
20260502000003 47 0 0.0 0.0 0.00 0.00 0.00 70 1017.7
20260501235455 47 45 0.0 1.0 0.00 0.00 0.00 69 1017.7
20260501235003 47 45 0.0 1.0 0.00 0.00 0.00 69 1017.8
20260501234455 47 10 0.0 2.0 0.00 0.00 0.00 69 1017.8
20260501234003 48 36 0.0 2.0 0.00 0.00 0.00 69 1017.7
20260501233455 48 86 1.0 2.0 0.00 0.00 0.00 68 1018.0
20260501233003 48 74 1.0 2.0 0.00 0.00 0.00 68 1017.8
20260501232455 48 70 1.0 2.0 0.00 0.00 0.00 67 1018.0
20260501232003 48 96 1.0 2.0 0.00 0.00 0.00 67 1018.0
20260501231455 48 121 1.0 2.0 0.00 0.00 0.00 66 1017.9
20260501231003 48 135 0.0 2.0 0.00 0.00 0.00 66 1018.0
20260501230455 49 119 0.0 2.0 0.00 0.00 0.00 66 1017.9
20260501230003 49 121 1.0 3.0 0.00 0.00 0.00 66 1018.0
20260501225455 49 125 1.0 3.0 0.00 0.00 0.00 65 1018.1
20260501225003 49 114 1.0 3.0 0.00 0.00 0.00 65 1017.9
20260501224455 49 113 1.0 2.0 0.00 0.00 0.00 64 1017.9
20260501224003 49 121 0.0 2.0 0.00 0.00 0.00 64 1017.9
20260501223455 50 135 0.0 2.0 0.00 0.00 0.00 63 1017.9
20260501223004 50 135 0.0 2.0 0.00 0.00 0.00 63 1018.1
20260501222455 50 135 0.0 2.0 0.00 0.00 0.00 63 1018.1
20260501222003 50 135 0.0 2.0 0.00 0.00 0.00 62 1018.3
20260501221455 51 0 0.0 0.0 0.00 0.00 0.00 62 1018.2
20260501221003 51 0 0.0 0.0 0.00 0.00 0.00 62 1018.1
20260501220455 51 45 0.0 1.0 0.00 0.00 0.00 62 1018.1
20260501220003 51 14 1.0 4.0 0.00 0.00 0.00 62 1018.3
20260501215455 51 4 2.0 5.0 0.00 0.00 0.00 63 1018.3
20260501215002 51 5 3.0 5.0 0.00 0.00 0.00 64 1018.3
20260501214455 50 9 2.0 5.0 0.00 0.00 0.00 64 1018.4